Location: Newark
(29.9790°N, 31.1340°E)
Time: 08:34:48
(UTC+00:00)

Altair - Visible Passes

Search period start: 29 January 2020 00:00
Search period end: 08 February 2020 00:00
Orbit: 1502 x 1682 km, 47.2° (Epoch: 28 January)

Date Brightness Start Highest point End Pass type
(mag) Time Alt. Az. Time Alt. Az. Time Alt. Az.
29 Jan 9.8 02:06:08 10° SSE 02:11:51 17° ESE 02:17:40 10° E visible
29 Jan 7.9 04:05:44 10° SW 04:15:30 75° SE 04:25:36 10° NE visible
30 Jan 9.8 01:41:59 10° SSE 01:46:47 15° ESE 01:51:39 10° E visible
30 Jan 8.0 03:40:39 10° SW 03:50:20 69° SE 04:00:20 10° NE visible
31 Jan 9.8 01:18:10 10° SE 01:21:43 12° ESE 01:25:20 10° E visible
31 Jan 8.0 03:15:37 10° SSW 03:25:10 63° SE 03:35:04 10° NE visible
01 Feb 9.8 00:55:29 10° SE 00:56:40 10° ESE 00:57:51 10° ESE visible
01 Feb 8.1 02:50:37 10° SSW 03:00:01 57° SE 03:09:46 10° ENE visible
02 Feb 8.2 02:25:38 10° SSW 02:34:53 52° SE 02:44:27 10° ENE visible
03 Feb 8.3 02:03:28 21° SSW 02:09:46 47° SE 02:19:08 10° ENE visible
03 Feb 7.8 04:04:50 10° WSW 04:14:27 58° NNW 04:24:25 10° NE visible
04 Feb 8.4 01:41:06 32° S 01:44:39 43° SE 01:53:46 10° ENE visible
04 Feb 7.7 03:39:32 10° WSW 03:49:11 62° NW 03:59:12 10° NE visible
05 Feb 8.4 01:18:26 37° SE 01:19:33 38° SE 01:28:23 10° ENE visible
05 Feb 7.6 03:16:32 19° WSW 03:23:56 67° NW 03:33:59 10° NE visible
06 Feb 8.6 00:55:31 34° ESE 00:55:31 34° ESE 01:02:59 10° ENE visible
06 Feb 7.5 02:53:37 33° WSW 02:58:42 72° NW 03:08:46 10° NE visible
07 Feb 9.0 00:32:26 26° E 00:32:26 26° E 00:37:32 10° ENE visible
07 Feb 7.4 02:30:31 51° WSW 02:33:28 77° NW 02:43:32 10° NE visible
